This is the latest recevied weather packets stored in our database for station/object R1ZCU-14. If no packets are shown the sender has not sent any weather packets the latest 10 day(s).
| Time | Temp. | Humidity | Pressure | Rain* | Wind** | Luminosity | Snow |
|---|---|---|---|---|---|---|---|
| 1777897303 | 10° C | 29% | 994.9 hPa | - | - | - | - |
| 1777896702 | 10° C | 29% | 994.9 hPa | - | - | - | - |
| 1777896102 | 10° C | 29% | 995 hPa | - | - | - | - |
| 1777895501 | 9.44° C | 31% | 995.1 hPa | - | - | - | - |
| 1777894901 | 10° C | 31% | 995.1 hPa | - | - | - | - |
| 1777894300 | 10° C | 31% | 995.1 hPa | - | - | - | - |
| 1777893700 | 10° C | 31% | 995.3 hPa | - | - | - | - |
| 1777893099 | 10° C | 31% | 995.4 hPa | - | - | - | - |
| 1777892499 | 10° C | 31% | 995.6 hPa | - | - | - | - |
| 1777891898 | 10° C | 32% | 995.5 hPa | - | - | - | - |
| 1777891298 | 10° C | 32% | 995.7 hPa | - | - | - | - |
| 1777890697 | 10° C | 31% | 995.7 hPa | - | - | - | - |
| 1777890097 | 10° C | 32% | 995.7 hPa | - | - | - | - |
| 1777889496 | 10° C | 32% | 995.8 hPa | - | - | - | - |
| 1777888896 | 10° C | 32% | 995.9 hPa | - | - | - | - |
| 1777888295 | 10° C | 32% | 995.8 hPa | - | - | - | - |
| 1777887695 | 10° C | 30% | 995.9 hPa | - | - | - | - |
| 1777887094 | 14.44° C | 23% | 995.4 hPa | - | - | - | - |
| 1777886494 | 16.67° C | 18% | 995 hPa | - | - | - | - |
| 1777885893 | 19.44° C | 16% | 995 hPa | - | - | - | - |
| 1777885293 | 20.56° C | 16% | 995 hPa | - | - | - | - |
| 1777884692 | 20° C | 16% | 994.8 hPa | - | - | - | - |
| 1777884092 | 19.44° C | 16% | 995 hPa | - | - | - | - |
| 1777883491 | 17.22° C | 18% | 995 hPa | - | - | - | - |
| 1777882891 | 18.33° C | 16% | 995 hPa | - | - | - | - |
* Rain since midnight (hover to see other rain measurements)
** Current wind speed in m/s (hover to see current wind gust speed)